[[{"header":{"parameterUnit":"m.s-1","parameterCategory":1,"la1":30.2991,"la2":30.254,"lo1":-89.0895,"lo2":-89.0444,"dy":0.0017,"dx":0.0017,"nx":28,"ny":28,"refTime":"2025-09-15T09:00:00:Z","depth":0,"parameterNumber":2,"parameterNumberName":"U-component_of_WINDS"},"data":[0,0,0,0,0,0,0,0,0,0,0,0,0,0,0,0,0,0,0,0,0,0,0,0,0,0,0,0,0,0,0,0,0,0,0,0,0,0,0,0,0,0,0,0,0,0,0,0,0,0,0,0,0,0,0,0,0,0,1.9224,1.9225,0,1.928,1.9281,1.9282,1.9267,1.9266,1.9265,1.9264,1.9319,1.9321,1.9324,0,0,0,0,0,0,0,0,0,0,0,0,0,1.91,1.9102,1.9224,1.9225,1.9226,1.928,1.9281,1.9282,1.9267,1.9266,1.9265,1.9263,1.9318,1.9321,1.9324,0,0,0,0,0,0,0,0,0,0,0,0,0,1.9155,1.9103,1.9224,1.9225,1.9226,1.928,1.9281,1.9282,1.9268,1.9266,1.9264,1.9263,1.9317,1.9321,1.9324,1.9381,0,0,1.9336,1.9337,0,0,0,0,0,0,0,0,1.9152,1.9159,1.9224,1.9225,1.9226,1.9265,1.9258,1.9315,1.9268,1.9252,1.9264,1.9262,1.9302,1.9307,1.9321,1.9383,1.9386,1.9336,1.9338,1.934,1.9341,0,0,0,0,0,0,0,1.9148,1.9157,1.9246,1.9225,1.9226,1.9221,1.9227,1.9268,1.9285,1.9253,1.9252,1.9259,1.9302,1.9318,1.9322,1.9387,1.9336,1.9339,1.9342,1.9343,1.9495,1.9497,0,0,0,0,0,0,1.9144,1.9154,1.9245,1.9248,1.9184,1.9225,1.9231,1.9254,1.9285,1.9288,1.926,1.9258,1.9312,1.9318,1.9324,1.939,1.934,1.9344,1.9346,1.9493,1.9495,1.9497,0,0,0,0,0,0,1.9141,1.9152,1.9242,1.9201,1.9212,1.9229,1.9254,1.9256,1.9271,1.9291,1.9293,1.9273,1.9311,1.9319,1.9366,1.9392,1.9345,1.9349,1.9491,1.9494,1.9496,1.9524,0,0,0,0,0,0,1.9138,1.9151,1.9174,1.9201,1.9214,1.9285,1.9256,1.9258,1.9278,1.9276,1.9303,1.9306,1.931,1.9361,1.937,1.9396,1.9352,1.9489,1.9492,1.9495,1.9521,1.9527,1.9533,0,0,0,0,0,1.9134,1.918,1.9175,1.9186,1.9243,1.9286,1.9293,1.9298,1.928,1.9302,1.9314,1.9305,1.9388,1.9366,1.9376,1.9404,1.9487,1.9491,1.9495,1.9518,1.9526,1.9533,0,0,0,0,0,0,1.9154,1.9183,1.9179,1.9235,1.9259,1.9284,1.9312,1.9307,1.9335,1.9331,1.9335,1.9341,1.9389,1.9401,1.9376,1.9459,1.9435,1.9441,1.9449,1.9456,1.9462,1.9458,1.9355,0,0,0,0,0,1.9166,1.92,1.9223,1.927,1.9282,1.9295,1.9314,1.9316,1.9339,1.9349,1.9364,1.9387,1.9418,1.9438,1.9468,1.9523,1.9527,1.9547,1.9553,1.9558,1.9562,1.959,1.9598,1.951,1.951,1.951,0,0,1.9189,1.9209,1.923,1.9275,1.9293,1.9326,1.9303,1.934,1.9365,1.9354,1.94,1.9412,1.9437,1.9488,1.9511,1.95,1.9588,1.9563,1.9567,1.9569,1.9595,1.9603,1.9611,1.9513,1.9513,1.9512,0,0,1.9248,1.9268,1.9309,1.9327,1.9355,1.9363,1.9373,1.9399,1.9406,1.9452,1.9444,1.9473,1.9527,1.9544,1.956,1.9625,1.9616,1.9634,1.9665,1.9692,1.9699,1.9705,1.9726,1.9733,1.9639,1.9639,1.9639,0,1.9274,1.9325,1.933,1.9367,1.9386,1.9379,1.9419,1.9436,1.9472,1.9484,1.9471,1.9537,1.9554,1.9608,1.9623,1.9637,1.9647,1.963,1.9698,1.9704,1.9709,1.9729,1.9737,1.9641,1.9641,1.9641,1.9641,0,1.9353,1.9389,1.9418,1.9453,1.9475,1.9514,1.9523,1.9545,1.9544,1.9553,1.9598,1.9618,1.965,1.9664,1.9663,1.9717,1.9709,1.9697,1.9672,1.972,1.9738,1.9746,1.9644,1.9643,1.9643,1.9642,0,0,1.9428,1.9464,1.9474,1.9489,1.9519,1.9545,1.9583,1.9615,1.9632,1.9657,1.9687,1.9732,1.972,1.9739,1.974,1.9764,1.9811,1.9749,1.9749,1.9758,1.9868,1.9876,1.9885,1.9806,1.9808,1.9809,1.9865,0,1.9488,1.9554,1.9559,1.9618,1.965,1.9643,1.9675,1.9695,1.9704,1.9731,1.9741,1.9772,1.9756,1.9766,1.979,1.98,1.9833,1.9796,1.9832,1.9833,1.9824,1.9895,1.9903,1.9956,1.9873,1.9874,1.9875,0,1.9568,1.9594,1.9657,1.968,1.9693,1.9722,1.9751,1.9777,1.98,1.9804,1.9824,1.9822,1.9858,1.9834,1.9882,1.9857,1.9872,1.9879,1.9882,1.9884,1.9856,1.9897,1.9973,1.998,1.9887,1.9886,1.9885,0,1.9612,1.9664,1.9708,1.9721,1.975,1.977,1.9782,1.9803,1.9822,1.9846,1.9858,1.9887,1.9902,1.9924,1.9928,1.991,1.9976,1.9953,1.9979,1.9979,1.9992,1.9991,2.007,2.0005,2.0005,2.0005,2.0005,0,1.9678,1.9716,1.9728,1.9755,1.9796,1.9801,1.9841,1.9852,1.9871,1.9898,1.9894,1.9919,1.9925,1.9951,1.9955,1.9993,2.0001,2.0004,2.0004,2.0004,2.0003,2.0012,2.0008,2.0007,2.0006,2.0006,2.0006,0,1.9735,1.9745,1.9791,1.9815,1.9821,1.9851,1.987,1.9894,1.9902,1.9937,1.9945,1.9958,1.9988,1.9995,2.0031,2.0034,2.0079,2.0076,2.0071,2.007,2.0096,2.0093,2.0182,2.0193,2.0123,2.0123,2.0124,0,1.9776,1.9805,1.9831,1.9849,1.9862,1.9892,1.9911,1.9916,1.9935,1.9962,1.9982,2.0012,2.0037,2.0085,2.0096,2.0124,2.0121,2.015,2.0125,2.0122,2.0118,2.0116,2.0118,2.0154,2.0155,2.0156,2.0156,0,1.9846,1.9849,1.9877,1.9905,1.9927,1.995,1.9971,1.9986,1.9994,2.0016,2.0047,2.0065,2.0102,2.0131,2.0158,2.0169,2.0163,2.0164,2.0171,2.017,2.0165,2.0166,2.0082,2.0162,2.0161,2.0161,2.0161,2.016,1.9895,1.9919,1.9941,1.9971,1.9987,2.0007,2.0031,2.0042,2.0068,2.0098,2.01,2.0133,2.0153,2.0188,2.0201,2.0226,2.0217,2.0228,2.0231,2.0233,2.0234,2.0162,2.0231,2.0231,2.0231,2.0231,2.0231,0,1.9963,1.9976,2.0004,2.0034,2.0057,2.005,2.0073,2.0092,2.0122,2.0141,2.0165,2.0199,2.0227,2.0241,2.0267,2.0285,2.0282,2.0291,2.0289,2.0291,2.0242,2.0232,2.0293,2.0293,2.0293,2.0293,2.0293,2.0293,2.0001,2.0041,2.0046,2.0094,2.0107,2.014,2.0153,2.0171,2.0186,2.0225,2.0248,2.0257,2.0273,2.0301,2.0325,2.0328,2.0337,2.0347,2.0349,2.0302,2.0295,2.0289,2.028,2.035,2.035,2.0396,2.0397,2.0397]},{"header":{"parameterUnit":"m.s-1","parameterCategory":1,"la1":30.2991,"la2":30.254,"lo1":-89.0895,"lo2":-89.0444,"dy":0.0017,"dx":0.0017,"nx":28,"ny":28,"refTime":"2025-09-15T09:00:00:Z","depth":0,"parameterNumber":3,"parameterNumberName":"V-component_of_WINDS"},"data":[0,0,0,0,0,0,0,0,0,0,0,0,0,0,0,0,0,0,0,0,0,0,0,0,0,0,0,0,0,0,0,0,0,0,0,0,0,0,0,0,0,0,0,0,0,0,0,0,0,0,0,0,0,0,0,0,0,0,0.4437,0.4436,0,0.4398,0.4397,0.4397,0.435,0.4349,0.4348,0.4348,0.4308,0.4308,0.4307,0,0,0,0,0,0,0,0,0,0,0,0,0,0.447,0.4469,0.4437,0.4436,0.4436,0.4398,0.4397,0.4397,0.435,0.4349,0.4348,0.4347,0.4308,0.4308,0.4307,0,0,0,0,0,0,0,0,0,0,0,0,0,0.4445,0.4469,0.4437,0.4408,0.4405,0.4398,0.4397,0.4397,0.435,0.4349,0.4348,0.4347,0.4308,0.4308,0.4307,0.4326,0,0,0.4305,0.4305,0,0,0,0,0,0,0,0,0.4447,0.4444,0.4413,0.441,0.4406,0.4377,0.4394,0.4373,0.435,0.4371,0.4348,0.4346,0.4332,0.4329,0.4325,0.4324,0.4322,0.4305,0.4305,0.4305,0.4305,0,0,0,0,0,0,0,0.4449,0.4446,0.4421,0.4412,0.4408,0.4396,0.4392,0.439,0.4358,0.4369,0.4366,0.4362,0.433,0.4325,0.4323,0.4322,0.4305,0.4305,0.4305,0.4304,0.4332,0.4333,0,0,0,0,0,0,0.4455,0.4447,0.4423,0.442,0.4424,0.4397,0.4392,0.4388,0.4358,0.4352,0.4363,0.4359,0.4327,0.4324,0.4322,0.434,0.4305,0.4304,0.4304,0.4331,0.4332,0.4333,0,0,0,0,0,0,0.4456,0.4453,0.4424,0.4433,0.4428,0.4397,0.4394,0.4388,0.4383,0.4353,0.4347,0.4363,0.4326,0.4322,0.4325,0.4338,0.4304,0.4304,0.433,0.4331,0.4333,0.4378,0,0,0,0,0,0,0.4457,0.4454,0.4461,0.4433,0.4428,0.4428,0.4395,0.4388,0.4382,0.4378,0.4352,0.4347,0.4325,0.4326,0.4324,0.4337,0.4303,0.4328,0.433,0.4332,0.4376,0.4381,0.4386,0,0,0,0,0,0.4458,0.4475,0.4461,0.4459,0.4436,0.4429,0.4426,0.44,0.4383,0.439,0.437,0.4348,0.4337,0.4326,0.4324,0.4337,0.4327,0.433,0.4332,0.4373,0.438,0.4386,0,0,0,0,0,0,0.4506,0.4471,0.4455,0.4464,0.445,0.4421,0.4429,0.4408,0.4398,0.4395,0.4363,0.4357,0.4363,0.435,0.4339,0.4352,0.4329,0.4331,0.4361,0.4367,0.4372,0.4375,0.4303,0,0,0,0,0,0.4517,0.4515,0.4485,0.4495,0.4489,0.446,0.4456,0.4437,0.4421,0.4415,0.4395,0.438,0.4373,0.437,0.4362,0.4373,0.4366,0.4381,0.4386,0.4391,0.4393,0.4397,0.4402,0.4341,0.4341,0.4341,0,0,0.4541,0.4522,0.4522,0.4504,0.4491,0.4488,0.4455,0.4455,0.4452,0.4414,0.4415,0.44,0.4381,0.4388,0.439,0.4377,0.4408,0.4394,0.4398,0.4397,0.44,0.4405,0.4411,0.4343,0.4343,0.4342,0,0,0.4583,0.4569,0.4576,0.4562,0.4542,0.4523,0.4524,0.4498,0.4487,0.4487,0.4458,0.4455,0.4444,0.4431,0.4423,0.4458,0.4437,0.4457,0.4485,0.4489,0.4493,0.4498,0.4509,0.4514,0.4459,0.4459,0.4459,0,0.4615,0.4611,0.4582,0.4582,0.4575,0.454,0.4546,0.4535,0.4513,0.4508,0.4495,0.4479,0.4464,0.4466,0.4475,0.447,0.447,0.4459,0.4495,0.4499,0.4502,0.4513,0.4518,0.4461,0.4461,0.4461,0.4461,0,0.4651,0.4648,0.4655,0.4635,0.4628,0.4632,0.4603,0.4599,0.458,0.4562,0.4562,0.4542,0.4529,0.4528,0.451,0.4527,0.452,0.4501,0.4477,0.4511,0.452,0.4524,0.4465,0.4464,0.4463,0.4463,0,0,0.4722,0.4685,0.4688,0.4678,0.4652,0.4649,0.465,0.4637,0.4634,0.462,0.462,0.461,0.4592,0.4583,0.4563,0.4567,0.4594,0.4547,0.4546,0.4556,0.4611,0.4625,0.463,0.458,0.458,0.4581,0.4612,0,0.4759,0.4759,0.4733,0.474,0.4736,0.4702,0.4703,0.4687,0.467,0.4664,0.4644,0.4638,0.4615,0.4609,0.4611,0.4591,0.4605,0.4588,0.4578,0.4578,0.4584,0.4635,0.465,0.4681,0.4616,0.4616,0.4617,0,0.4802,0.479,0.4797,0.477,0.4767,0.4769,0.4753,0.4748,0.4729,0.4716,0.4705,0.4682,0.468,0.4657,0.4653,0.4643,0.4637,0.4626,0.4626,0.4624,0.46,0.4634,0.469,0.4694,0.4622,0.4622,0.4622,0,0.4853,0.4838,0.484,0.4832,0.4801,0.4802,0.4789,0.4769,0.4762,0.4749,0.4743,0.473,0.4723,0.4713,0.4686,0.4672,0.4685,0.466,0.4674,0.4674,0.4678,0.4678,0.4733,0.4675,0.4675,0.4675,0.4675,0,0.4897,0.4902,0.4862,0.4863,0.4868,0.4837,0.4842,0.4825,0.4807,0.4804,0.4774,0.4771,0.4736,0.4729,0.4708,0.4708,0.4705,0.4694,0.4688,0.4696,0.4698,0.4692,0.4689,0.4676,0.4676,0.4676,0.4676,0,0.4954,0.4928,0.4927,0.4897,0.4889,0.4894,0.4868,0.4867,0.4847,0.4844,0.4841,0.481,0.48,0.4772,0.4756,0.4741,0.4747,0.4736,0.4753,0.475,0.4764,0.4763,0.4817,0.4822,0.4762,0.4763,0.4763,0,0.4983,0.4987,0.4957,0.4952,0.494,0.4934,0.4926,0.4895,0.4889,0.4866,0.4868,0.4856,0.4844,0.483,0.4806,0.4792,0.4781,0.4801,0.4779,0.4786,0.478,0.478,0.478,0.4806,0.4807,0.4807,0.4808,0,0.5038,0.5024,0.5015,0.5001,0.4993,0.498,0.4966,0.4964,0.4929,0.4923,0.4912,0.4903,0.4886,0.4873,0.4856,0.4842,0.4819,0.4815,0.4817,0.4825,0.4835,0.4829,0.4766,0.4814,0.4813,0.4813,0.4812,0.4812,0.5082,0.5082,0.5061,0.5051,0.5037,0.5024,0.5021,0.5001,0.4992,0.4975,0.4957,0.4948,0.4927,0.4901,0.4888,0.488,0.4868,0.4872,0.4872,0.4874,0.4877,0.4836,0.4877,0.4877,0.4876,0.4876,0.4876,0,0.5134,0.5118,0.511,0.509,0.5082,0.5061,0.5043,0.5038,0.5031,0.5013,0.5002,0.4989,0.4977,0.4951,0.4936,0.4934,0.4923,0.4931,0.4931,0.4928,0.4889,0.4888,0.494,0.494,0.494,0.494,0.494,0.494,0.516,0.516,0.5144,0.5136,0.512,0.5111,0.5102,0.509,0.5075,0.5062,0.5052,0.5035,0.5013,0.4996,0.4984,0.4976,0.4972,0.4983,0.4972,0.4937,0.4931,0.4925,0.4924,0.4983,0.4983,0.5011,0.5012,0.5012]}]]